Year,Month,Day,Hour,Minute,Value (Times are PST for temperature in C)
2010,03,04,00,00,3.90
2010,03,04,00,01,3.80
2010,03,04,00,02,3.80
2010,03,04,00,03,3.70
2010,03,04,00,04,3.70
2010,03,04,00,05,3.70
2010,03,04,00,06,3.60
2010,03,04,00,07,3.60
2010,03,04,00,08,3.50
2010,03,04,00,09,3.50
2010,03,04,00,10,3.40
2010,03,04,00,11,3.40
2010,03,04,00,12,3.30
2010,03,04,00,13,3.30
2010,03,04,00,14,3.30
2010,03,04,00,15,3.30
2010,03,04,00,16,3.30
2010,03,04,00,17,3.30
2010,03,04,00,18,3.30
2010,03,04,00,19,3.40
2010,03,04,00,20,3.50
2010,03,04,00,21,3.50
2010,03,04,00,22,3.60
2010,03,04,00,23,3.60
2010,03,04,00,24,3.60
2010,03,04,00,25,3.50
2010,03,04,00,26,3.40
2010,03,04,00,27,3.40
2010,03,04,00,28,3.30
2010,03,04,00,29,3.20
2010,03,04,00,30,3.10
2010,03,04,00,31,3.10
2010,03,04,00,32,3.10
2010,03,04,00,33,3.00
2010,03,04,00,34,3.00
2010,03,04,00,35,2.90
2010,03,04,00,36,2.90
2010,03,04,00,37,2.90
2010,03,04,00,38,2.90
2010,03,04,00,39,2.80
2010,03,04,00,40,2.80
2010,03,04,00,41,2.80
2010,03,04,00,42,2.80
2010,03,04,00,43,2.80
2010,03,04,00,44,2.80
2010,03,04,00,45,2.80
2010,03,04,00,46,2.80
2010,03,04,00,47,2.80
2010,03,04,00,48,2.80
2010,03,04,00,49,2.80
2010,03,04,00,50,2.80
2010,03,04,00,51,2.80
2010,03,04,00,52,2.80
2010,03,04,00,53,2.80
2010,03,04,00,54,2.80
2010,03,04,00,55,2.80
2010,03,04,00,56,2.80
2010,03,04,00,57,2.80
2010,03,04,00,58,2.80
2010,03,04,00,59,2.80
2010,03,04,01,00,2.80
2010,03,04,01,01,2.90
2010,03,04,01,02,2.90
2010,03,04,01,03,2.90
2010,03,04,01,04,2.90
2010,03,04,01,05,2.90
2010,03,04,01,06,2.90
2010,03,04,01,07,2.90
2010,03,04,01,08,2.80
2010,03,04,01,09,2.80
2010,03,04,01,10,2.80
2010,03,04,01,11,2.80
2010,03,04,01,12,2.80
2010,03,04,01,13,2.80
2010,03,04,01,14,2.70
2010,03,04,01,15,2.70
2010,03,04,01,16,2.70
2010,03,04,01,17,2.70
2010,03,04,01,18,2.60
2010,03,04,01,19,2.60
2010,03,04,01,20,2.60
2010,03,04,01,21,2.50
2010,03,04,01,22,2.50
2010,03,04,01,23,2.40
2010,03,04,01,24,2.40
2010,03,04,01,25,2.40
2010,03,04,01,26,2.50
2010,03,04,01,27,2.50
2010,03,04,01,28,2.40
2010,03,04,01,29,2.40
2010,03,04,01,30,2.40
2010,03,04,01,31,2.40
2010,03,04,01,32,2.30
2010,03,04,01,33,2.30
2010,03,04,01,34,2.30
2010,03,04,01,35,2.30
2010,03,04,01,36,2.20
2010,03,04,01,37,2.20
2010,03,04,01,38,2.20
2010,03,04,01,39,2.20
2010,03,04,01,40,2.10
2010,03,04,01,41,2.10
2010,03,04,01,42,2.10
2010,03,04,01,43,2.10
2010,03,04,01,44,2.10
2010,03,04,01,45,2.10
2010,03,04,01,46,2.10
2010,03,04,01,47,2.10
2010,03,04,01,48,2.20
2010,03,04,01,49,2.20
2010,03,04,01,50,2.20
2010,03,04,01,51,2.30
2010,03,04,01,52,2.30
2010,03,04,01,53,2.30
2010,03,04,01,54,2.20
2010,03,04,01,55,2.20
2010,03,04,01,56,2.20
2010,03,04,01,57,2.10
2010,03,04,01,58,2.10
2010,03,04,01,59,2.10
2010,03,04,02,00,2.00
2010,03,04,02,01,2.00
2010,03,04,02,02,2.00
2010,03,04,02,03,1.90
2010,03,04,02,04,1.90
2010,03,04,02,05,1.90
2010,03,04,02,06,1.90
2010,03,04,02,07,1.80
2010,03,04,02,08,1.80
2010,03,04,02,09,1.80
2010,03,04,02,10,1.80
2010,03,04,02,11,1.80
2010,03,04,02,12,1.80
2010,03,04,02,13,1.70
2010,03,04,02,14,1.70
2010,03,04,02,15,1.70
2010,03,04,02,16,1.70
2010,03,04,02,17,1.60
2010,03,04,02,18,1.60
2010,03,04,02,19,1.60
2010,03,04,02,20,1.60
2010,03,04,02,21,1.60
2010,03,04,02,22,1.50
2010,03,04,02,23,1.50
2010,03,04,02,24,1.50
2010,03,04,02,25,1.50
2010,03,04,02,26,1.50
2010,03,04,02,27,1.50
2010,03,04,02,28,1.50
2010,03,04,02,29,1.50
2010,03,04,02,30,1.50
2010,03,04,02,31,1.50
2010,03,04,02,32,1.50
2010,03,04,02,33,1.50
2010,03,04,02,34,1.60
2010,03,04,02,35,1.60
2010,03,04,02,36,1.60
2010,03,04,02,37,1.60
2010,03,04,02,38,1.60
2010,03,04,02,39,1.60
2010,03,04,02,40,1.60
2010,03,04,02,41,1.60
2010,03,04,02,42,1.50
2010,03,04,02,43,1.50
2010,03,04,02,44,1.50
2010,03,04,02,45,1.40
2010,03,04,02,46,1.40
2010,03,04,02,47,1.50
2010,03,04,02,48,1.60
2010,03,04,02,49,1.60
2010,03,04,02,50,1.70
2010,03,04,02,51,1.70
2010,03,04,02,52,1.70
2010,03,04,02,53,1.70
2010,03,04,02,54,1.70
2010,03,04,02,55,1.70
2010,03,04,02,56,1.70
2010,03,04,02,57,1.70
2010,03,04,02,58,1.70
2010,03,04,02,59,1.70
2010,03,04,03,00,1.70
2010,03,04,03,01,1.60
2010,03,04,03,02,1.60
2010,03,04,03,03,1.60
2010,03,04,03,04,1.50
2010,03,04,03,05,1.50
2010,03,04,03,06,1.40
2010,03,04,03,07,1.40
2010,03,04,03,08,1.40
2010,03,04,03,09,1.30
2010,03,04,03,10,1.30
2010,03,04,03,11,1.30
2010,03,04,03,12,1.30
2010,03,04,03,13,1.30
2010,03,04,03,14,1.30
2010,03,04,03,15,1.30
2010,03,04,03,16,1.30
2010,03,04,03,17,1.30
2010,03,04,03,18,1.20
2010,03,04,03,19,1.20
2010,03,04,03,20,1.20
2010,03,04,03,21,1.20
2010,03,04,03,22,1.10
2010,03,04,03,23,1.10
2010,03,04,03,24,1.10
2010,03,04,03,25,1.00
2010,03,04,03,26,1.00
2010,03,04,03,27,0.90
2010,03,04,03,28,0.90
2010,03,04,03,29,0.90
2010,03,04,03,30,0.80
2010,03,04,03,31,0.80
2010,03,04,03,32,0.80
2010,03,04,03,33,0.80
2010,03,04,03,34,0.80
2010,03,04,03,35,0.80
2010,03,04,03,36,0.80
2010,03,04,03,37,0.80
2010,03,04,03,38,0.80
2010,03,04,03,39,0.80
2010,03,04,03,40,0.80
2010,03,04,03,41,0.70
2010,03,04,03,42,0.70
2010,03,04,03,43,0.70
2010,03,04,03,44,0.70
2010,03,04,03,45,0.70
2010,03,04,03,46,0.70
2010,03,04,03,47,0.70
2010,03,04,03,48,0.70
2010,03,04,03,49,0.70
2010,03,04,03,50,0.70
2010,03,04,03,51,0.70
2010,03,04,03,52,0.70
2010,03,04,03,53,0.70
2010,03,04,03,54,0.70
2010,03,04,03,55,0.70
2010,03,04,03,56,0.80
2010,03,04,03,57,0.80
2010,03,04,03,58,0.80
2010,03,04,03,59,0.80
2010,03,04,04,00,0.90
2010,03,04,04,01,0.90
2010,03,04,04,02,0.90
2010,03,04,04,03,1.00
2010,03,04,04,04,1.10
2010,03,04,04,05,1.10
2010,03,04,04,06,1.20
2010,03,04,04,07,1.20
2010,03,04,04,08,1.20
2010,03,04,04,09,1.30
2010,03,04,04,10,1.30
2010,03,04,04,11,1.30
2010,03,04,04,12,1.30
2010,03,04,04,13,1.20
2010,03,04,04,14,1.20
2010,03,04,04,15,1.10
2010,03,04,04,16,1.00
2010,03,04,04,17,1.00
2010,03,04,04,18,0.90
2010,03,04,04,19,0.90
2010,03,04,04,20,0.80
2010,03,04,04,21,0.80
2010,03,04,04,22,0.70
2010,03,04,04,23,0.70
2010,03,04,04,24,0.70
2010,03,04,04,25,0.60
2010,03,04,04,26,0.60
2010,03,04,04,27,0.60
2010,03,04,04,28,0.60
2010,03,04,04,29,0.60
2010,03,04,04,30,0.70
2010,03,04,04,31,0.70
2010,03,04,04,32,0.70
2010,03,04,04,33,0.70
2010,03,04,04,34,0.70
2010,03,04,04,35,0.70
2010,03,04,04,36,0.70
2010,03,04,04,37,0.70
2010,03,04,04,38,0.70
2010,03,04,04,39,0.70
2010,03,04,04,40,0.70
2010,03,04,04,41,0.70
2010,03,04,04,42,0.80
2010,03,04,04,43,0.80
2010,03,04,04,44,0.90
2010,03,04,04,45,0.90
2010,03,04,04,46,0.90
2010,03,04,04,47,0.90
2010,03,04,04,48,0.80
2010,03,04,04,49,0.70
2010,03,04,04,50,0.70
2010,03,04,04,51,0.60
2010,03,04,04,52,0.60
2010,03,04,04,53,0.50
2010,03,04,04,54,0.50
2010,03,04,04,55,0.40
2010,03,04,04,56,0.40
2010,03,04,04,57,0.40
2010,03,04,04,58,0.30
2010,03,04,04,59,0.30
2010,03,04,05,00,0.30
2010,03,04,05,01,0.30
2010,03,04,05,02,0.30
2010,03,04,05,03,0.30
2010,03,04,05,04,0.30
2010,03,04,05,05,0.30
2010,03,04,05,06,0.30
2010,03,04,05,07,0.30
2010,03,04,05,08,0.30
2010,03,04,05,09,0.30
2010,03,04,05,10,0.30
2010,03,04,05,11,0.30
2010,03,04,05,12,0.40
2010,03,04,05,13,0.40
2010,03,04,05,14,0.40
2010,03,04,05,15,0.50
2010,03,04,05,16,0.50
2010,03,04,05,17,0.50
2010,03,04,05,18,0.60
2010,03,04,05,19,0.60
2010,03,04,05,20,0.60
2010,03,04,05,21,0.70
2010,03,04,05,22,0.70
2010,03,04,05,23,0.60
2010,03,04,05,24,0.60
2010,03,04,05,25,0.50
2010,03,04,05,26,0.50
2010,03,04,05,27,0.40
2010,03,04,05,28,0.40
2010,03,04,05,29,0.30
2010,03,04,05,30,0.20
2010,03,04,05,31,0.20
2010,03,04,05,32,0.20
2010,03,04,05,33,0.10
2010,03,04,05,34,0.10
2010,03,04,05,35,0.10
2010,03,04,05,36,0.00
2010,03,04,05,37,0.00
2010,03,04,05,38,0.00
2010,03,04,05,39,-0.10
2010,03,04,05,40,-0.10
2010,03,04,05,41,-0.10
2010,03,04,05,42,-0.10
2010,03,04,05,43,-0.10
2010,03,04,05,44,-0.10
2010,03,04,05,45,-0.10
2010,03,04,05,46,0.00
2010,03,04,05,47,0.10
2010,03,04,05,48,0.10
2010,03,04,05,49,0.20
2010,03,04,05,50,0.20
2010,03,04,05,51,0.30
2010,03,04,05,52,0.30
2010,03,04,05,53,0.30
2010,03,04,05,54,0.40
2010,03,04,05,55,0.40
2010,03,04,05,56,0.40
2010,03,04,05,57,0.40
2010,03,04,05,58,0.40
2010,03,04,05,59,0.40
2010,03,04,06,00,0.40
2010,03,04,06,01,0.40
2010,03,04,06,02,0.40
2010,03,04,06,03,0.30
2010,03,04,06,04,0.30
2010,03,04,06,05,0.30
2010,03,04,06,06,0.20
2010,03,04,06,07,0.20
2010,03,04,06,08,0.10
2010,03,04,06,09,0.10
2010,03,04,06,10,0.10
2010,03,04,06,11,0.00
2010,03,04,06,12,0.00
2010,03,04,06,13,0.00
2010,03,04,06,14,-0.10
2010,03,04,06,15,-0.10
2010,03,04,06,16,-0.10
2010,03,04,06,17,-0.10
2010,03,04,06,18,-0.10
2010,03,04,06,19,-0.10
2010,03,04,06,20,-0.10
2010,03,04,06,21,-0.20
2010,03,04,06,22,-0.20
2010,03,04,06,23,-0.20
2010,03,04,06,24,-0.20
2010,03,04,06,25,-0.20
2010,03,04,06,26,-0.20
2010,03,04,06,27,-0.20
2010,03,04,06,28,-0.20
2010,03,04,06,29,-0.20
2010,03,04,06,30,-0.10
2010,03,04,06,31,-0.10
2010,03,04,06,32,-0.10
2010,03,04,06,33,-0.10
2010,03,04,06,34,-0.10
2010,03,04,06,35,-0.10
2010,03,04,06,36,-0.10
2010,03,04,06,37,-0.10
2010,03,04,06,38,-0.10
2010,03,04,06,39,-0.10
2010,03,04,06,40,-0.10
2010,03,04,06,41,-0.10
2010,03,04,06,42,-0.10
2010,03,04,06,43,-0.10
2010,03,04,06,44,-0.10
2010,03,04,06,45,-0.10
2010,03,04,06,46,-0.20
2010,03,04,06,47,-0.20
2010,03,04,06,48,-0.20
2010,03,04,06,49,-0.20
2010,03,04,06,50,-0.20
2010,03,04,06,51,-0.20
2010,03,04,06,52,-0.20
2010,03,04,06,53,-0.20
2010,03,04,06,54,-0.20
2010,03,04,06,55,-0.20
2010,03,04,06,56,-0.10
2010,03,04,06,57,-0.10
2010,03,04,06,58,-0.10
2010,03,04,06,59,-0.10
2010,03,04,07,00,0.00
2010,03,04,07,01,0.00
2010,03,04,07,02,0.10
2010,03,04,07,03,0.10
2010,03,04,07,04,0.10
2010,03,04,07,05,0.20
2010,03,04,07,06,0.20
2010,03,04,07,07,0.20
2010,03,04,07,08,0.20
2010,03,04,07,09,0.20
2010,03,04,07,10,0.20
2010,03,04,07,11,0.10
2010,03,04,07,12,0.10
2010,03,04,07,13,0.00
2010,03,04,07,14,-0.10
2010,03,04,07,15,-0.20
2010,03,04,07,16,-0.20
2010,03,04,07,17,-0.20
2010,03,04,07,18,-0.20
2010,03,04,07,19,-0.30
2010,03,04,07,20,-0.30
2010,03,04,07,21,-0.30
2010,03,04,07,22,-0.30
2010,03,04,07,23,-0.30
2010,03,04,07,24,-0.30
2010,03,04,07,25,-0.30
2010,03,04,07,26,-0.30
2010,03,04,07,27,-0.20
2010,03,04,07,28,-0.20
2010,03,04,07,29,-0.10
2010,03,04,07,30,-0.10
2010,03,04,07,31,0.00
2010,03,04,07,32,0.10
2010,03,04,07,33,0.20
2010,03,04,07,34,0.30
2010,03,04,07,35,0.40
2010,03,04,07,36,0.50
2010,03,04,07,37,0.60
2010,03,04,07,38,0.70
2010,03,04,07,39,0.80
2010,03,04,07,40,0.80
2010,03,04,07,41,0.90
2010,03,04,07,42,1.00
2010,03,04,07,43,1.10
2010,03,04,07,44,1.20
2010,03,04,07,45,1.30
2010,03,04,07,46,1.30
2010,03,04,07,47,1.40
2010,03,04,07,48,1.50
2010,03,04,07,49,1.60
2010,03,04,07,50,1.60
2010,03,04,07,51,1.70
2010,03,04,07,52,1.80
2010,03,04,07,53,1.80
2010,03,04,07,54,1.90
2010,03,04,07,55,2.00
2010,03,04,07,56,2.00
2010,03,04,07,57,2.00
2010,03,04,07,58,2.00
2010,03,04,07,59,2.00
2010,03,04,08,00,2.00
2010,03,04,08,01,1.90
2010,03,04,08,02,1.90
2010,03,04,08,03,1.90
2010,03,04,08,04,1.90
2010,03,04,08,05,1.90
2010,03,04,08,06,1.90
2010,03,04,08,07,2.00
2010,03,04,08,08,2.10
2010,03,04,08,09,2.10
2010,03,04,08,10,2.10
2010,03,04,08,11,2.20
2010,03,04,08,12,2.20
2010,03,04,08,13,2.20
2010,03,04,08,14,2.30
2010,03,04,08,15,2.30
2010,03,04,08,16,2.40
2010,03,04,08,17,2.50
2010,03,04,08,18,2.60
2010,03,04,08,19,2.70
2010,03,04,08,20,2.80
2010,03,04,08,21,2.90
2010,03,04,08,22,2.90
2010,03,04,08,23,3.00
2010,03,04,08,24,3.00
2010,03,04,08,25,3.10
2010,03,04,08,26,3.10
2010,03,04,08,27,3.10
2010,03,04,08,28,3.10
2010,03,04,08,29,3.20
2010,03,04,08,30,3.20
2010,03,04,08,31,3.20
2010,03,04,08,32,3.20
2010,03,04,08,33,3.20
2010,03,04,08,34,3.20
2010,03,04,08,35,3.20
2010,03,04,08,36,3.20
2010,03,04,08,37,3.20
2010,03,04,08,38,3.30
2010,03,04,08,39,3.30
2010,03,04,08,40,3.40
2010,03,04,08,41,3.40
2010,03,04,08,42,3.50
2010,03,04,08,43,3.50
2010,03,04,08,44,3.60
2010,03,04,08,45,3.70
2010,03,04,08,46,3.70
2010,03,04,08,47,3.80
2010,03,04,08,48,3.80
2010,03,04,08,49,3.90
2010,03,04,08,50,3.90
2010,03,04,08,51,4.00
2010,03,04,08,52,4.10
2010,03,04,08,53,4.20
2010,03,04,08,54,4.30
2010,03,04,08,55,4.40
2010,03,04,08,56,4.60
2010,03,04,08,57,4.70
2010,03,04,08,58,4.80
2010,03,04,08,59,4.90
2010,03,04,09,00,5.10
2010,03,04,09,01,5.20
2010,03,04,09,02,5.30
2010,03,04,09,03,5.30
2010,03,04,09,04,5.40
2010,03,04,09,05,5.50
2010,03,04,09,06,5.60
2010,03,04,09,07,5.60
2010,03,04,09,08,5.70
2010,03,04,09,09,5.80
2010,03,04,09,10,5.80
2010,03,04,09,11,5.90
2010,03,04,09,12,6.00
2010,03,04,09,13,6.10
2010,03,04,09,14,6.20
2010,03,04,09,15,6.30
2010,03,04,09,16,6.40
2010,03,04,09,17,6.40
2010,03,04,09,18,6.50
2010,03,04,09,19,6.50
2010,03,04,09,20,6.60
2010,03,04,09,21,6.70
2010,03,04,09,22,6.80
2010,03,04,09,23,6.80
2010,03,04,09,24,6.80
2010,03,04,09,25,6.80
2010,03,04,09,26,6.80
2010,03,04,09,27,6.80
2010,03,04,09,28,6.80
2010,03,04,09,29,6.70
2010,03,04,09,30,6.80
2010,03,04,09,31,6.90
2010,03,04,09,32,7.00
2010,03,04,09,33,7.10
2010,03,04,09,34,7.20
2010,03,04,09,35,7.30
2010,03,04,09,36,7.40
2010,03,04,09,37,7.40
2010,03,04,09,38,7.40
2010,03,04,09,39,7.50
2010,03,04,09,40,7.50
2010,03,04,09,41,7.60
2010,03,04,09,42,7.60
2010,03,04,09,43,7.70
2010,03,04,09,44,7.80
2010,03,04,09,45,7.80
2010,03,04,09,46,7.90
2010,03,04,09,47,8.00
2010,03,04,09,48,8.10
2010,03,04,09,49,8.10
2010,03,04,09,50,8.30
2010,03,04,09,51,8.30
2010,03,04,09,52,8.30
2010,03,04,09,53,8.30
2010,03,04,09,54,8.30
2010,03,04,09,55,8.40
2010,03,04,09,56,8.40
2010,03,04,09,57,8.50
2010,03,04,09,58,8.50
2010,03,04,09,59,8.50
2010,03,04,10,00,8.50
2010,03,04,10,01,8.50
2010,03,04,10,02,8.50
2010,03,04,10,03,8.50
2010,03,04,10,04,8.60
2010,03,04,10,05,8.70
2010,03,04,10,06,8.70
2010,03,04,10,07,8.80
2010,03,04,10,08,8.80
2010,03,04,10,09,8.80
2010,03,04,10,10,8.90
2010,03,04,10,11,9.00
2010,03,04,10,12,9.10
2010,03,04,10,13,9.20
2010,03,04,10,14,9.30
2010,03,04,10,15,9.30
2010,03,04,10,16,9.40
2010,03,04,10,17,9.40
2010,03,04,10,18,9.40
2010,03,04,10,19,9.50
2010,03,04,10,20,9.60
2010,03,04,10,21,9.60
2010,03,04,10,22,9.70
2010,03,04,10,23,9.70
2010,03,04,10,24,9.70
2010,03,04,10,25,9.70
2010,03,04,10,26,9.70
2010,03,04,10,27,9.70
2010,03,04,10,28,9.70
2010,03,04,10,29,9.80
2010,03,04,10,30,9.90
2010,03,04,10,31,9.90
2010,03,04,10,32,10.00
2010,03,04,10,33,10.00
2010,03,04,10,34,10.00
2010,03,04,10,35,10.10
2010,03,04,10,36,10.10
2010,03,04,10,37,10.10
2010,03,04,10,38,10.10
2010,03,04,10,39,10.10
2010,03,04,10,40,10.10
2010,03,04,10,41,10.10
2010,03,04,10,42,10.10
2010,03,04,10,43,10.20
2010,03,04,10,44,10.20
2010,03,04,10,45,10.30
2010,03,04,10,46,10.20
2010,03,04,10,47,10.30
2010,03,04,10,48,10.30
2010,03,04,10,49,10.40
2010,03,04,10,50,10.40
2010,03,04,10,51,10.40
2010,03,04,10,52,10.40
2010,03,04,10,53,10.40
2010,03,04,10,54,10.50
2010,03,04,10,55,10.50
2010,03,04,10,56,10.50
2010,03,04,10,57,10.50
2010,03,04,10,58,10.50
2010,03,04,10,59,10.50
2010,03,04,11,00,10.50
2010,03,04,11,01,10.60
2010,03,04,11,02,10.60
2010,03,04,11,03,10.70
2010,03,04,11,04,10.80
2010,03,04,11,05,10.80
2010,03,04,11,06,10.80
2010,03,04,11,07,10.90
2010,03,04,11,08,10.90
2010,03,04,11,09,10.90
2010,03,04,11,10,11.00
2010,03,04,11,11,10.90
2010,03,04,11,12,10.90
2010,03,04,11,13,10.80
2010,03,04,11,14,10.80
2010,03,04,11,15,10.80
2010,03,04,11,16,10.80
2010,03,04,11,17,10.80
2010,03,04,11,18,10.90
2010,03,04,11,19,10.90
2010,03,04,11,20,10.90
2010,03,04,11,21,10.90
2010,03,04,11,22,10.80
2010,03,04,11,23,10.80
2010,03,04,11,24,10.80
2010,03,04,11,25,10.90
2010,03,04,11,26,10.90
2010,03,04,11,27,11.00
2010,03,04,11,28,11.00
2010,03,04,11,29,10.90
2010,03,04,11,30,10.90
2010,03,04,11,31,11.00
2010,03,04,11,32,11.10
2010,03,04,11,33,11.20
2010,03,04,11,34,11.20
2010,03,04,11,35,11.30
2010,03,04,11,36,11.30
2010,03,04,11,37,11.30
2010,03,04,11,38,11.30
2010,03,04,11,39,11.30
2010,03,04,11,40,11.20
2010,03,04,11,41,11.20
2010,03,04,11,42,11.20
2010,03,04,11,43,11.20
2010,03,04,11,44,11.20
2010,03,04,11,45,11.20
2010,03,04,11,46,11.30
2010,03,04,11,47,11.40
2010,03,04,11,48,11.40
2010,03,04,11,49,11.40
2010,03,04,11,50,11.50
2010,03,04,11,51,11.50
2010,03,04,11,52,11.50
2010,03,04,11,53,11.60
2010,03,04,11,54,11.60
2010,03,04,11,55,11.60
2010,03,04,11,56,11.60
2010,03,04,11,57,11.60
2010,03,04,11,58,11.60
2010,03,04,11,59,11.60
2010,03,04,12,00,11.50
2010,03,04,12,01,11.50
2010,03,04,12,02,11.60
2010,03,04,12,03,11.60
2010,03,04,12,04,11.70
2010,03,04,12,05,11.70
2010,03,04,12,06,11.60
2010,03,04,12,07,11.70
2010,03,04,12,08,11.80
2010,03,04,12,09,11.80
2010,03,04,12,10,11.70
2010,03,04,12,11,11.60
2010,03,04,12,12,11.70
2010,03,04,12,13,11.70
2010,03,04,12,14,11.70
2010,03,04,12,15,11.70
2010,03,04,12,16,11.70
2010,03,04,12,17,11.70
2010,03,04,12,18,11.70
2010,03,04,12,19,11.60
2010,03,04,12,20,11.60
2010,03,04,12,21,11.50
2010,03,04,12,22,11.60
2010,03,04,12,23,11.60
2010,03,04,12,24,11.60
2010,03,04,12,25,11.70
2010,03,04,12,26,11.80
2010,03,04,12,27,11.80
2010,03,04,12,28,11.90
2010,03,04,12,29,11.90
2010,03,04,12,30,11.80
2010,03,04,12,31,11.80
2010,03,04,12,32,11.80
2010,03,04,12,33,11.90
2010,03,04,12,34,11.80
2010,03,04,12,35,11.80
2010,03,04,12,36,11.80
2010,03,04,12,37,11.80
2010,03,04,12,38,11.80
2010,03,04,12,39,11.80
2010,03,04,12,40,11.80
2010,03,04,12,41,11.90
2010,03,04,12,42,11.80
2010,03,04,12,43,11.80
2010,03,04,12,44,11.80
2010,03,04,12,45,11.80
2010,03,04,12,46,11.80
2010,03,04,12,47,11.80
2010,03,04,12,48,11.80
2010,03,04,12,49,11.70
2010,03,04,12,50,11.70
2010,03,04,12,51,11.70
2010,03,04,12,52,11.80
2010,03,04,12,53,11.90
2010,03,04,12,54,11.90
2010,03,04,12,55,11.80
2010,03,04,12,56,11.80
2010,03,04,12,57,11.80
2010,03,04,12,58,11.80
2010,03,04,12,59,11.80
2010,03,04,13,00,11.80
2010,03,04,13,01,11.90
2010,03,04,13,02,12.00
2010,03,04,13,03,12.10
2010,03,04,13,04,12.10
2010,03,04,13,05,12.10
2010,03,04,13,06,12.10
2010,03,04,13,07,12.00
2010,03,04,13,08,11.90
2010,03,04,13,09,11.80
2010,03,04,13,10,11.70
2010,03,04,13,11,11.60
2010,03,04,13,12,11.50
2010,03,04,13,13,11.40
2010,03,04,13,14,11.40
2010,03,04,13,15,11.40
2010,03,04,13,16,11.40
2010,03,04,13,17,11.40
2010,03,04,13,18,11.50
2010,03,04,13,19,11.40
2010,03,04,13,20,11.40
2010,03,04,13,21,11.30
2010,03,04,13,22,11.40
2010,03,04,13,23,11.50
2010,03,04,13,24,11.60
2010,03,04,13,25,11.70
2010,03,04,13,26,11.70
2010,03,04,13,27,11.80
2010,03,04,13,28,11.80
2010,03,04,13,29,11.90
2010,03,04,13,30,11.90
2010,03,04,13,31,11.90
2010,03,04,13,32,11.90
2010,03,04,13,33,11.90
2010,03,04,13,34,11.90
2010,03,04,13,35,11.90
2010,03,04,13,36,11.90
2010,03,04,13,37,11.80
2010,03,04,13,38,11.90
2010,03,04,13,39,11.90
2010,03,04,13,40,11.90
2010,03,04,13,41,11.80
2010,03,04,13,42,11.80
2010,03,04,13,43,11.80
2010,03,04,13,44,11.80
2010,03,04,13,45,11.80
2010,03,04,13,46,11.90
2010,03,04,13,47,11.90
2010,03,04,13,48,11.90
2010,03,04,13,49,11.80
2010,03,04,13,50,11.80
2010,03,04,13,51,11.70
2010,03,04,13,52,11.80
2010,03,04,13,53,11.70
2010,03,04,13,54,11.70
2010,03,04,13,55,11.70
2010,03,04,13,56,11.70
2010,03,04,13,57,11.70
2010,03,04,13,58,11.70
2010,03,04,13,59,11.60
2010,03,04,14,00,11.60
2010,03,04,14,01,11.50
2010,03,04,14,02,11.50
2010,03,04,14,03,11.40
2010,03,04,14,04,11.40
2010,03,04,14,05,11.50
2010,03,04,14,06,11.50
2010,03,04,14,07,11.40
2010,03,04,14,08,11.40
2010,03,04,14,09,11.40
2010,03,04,14,10,11.40
2010,03,04,14,11,11.40
2010,03,04,14,12,11.40
2010,03,04,14,13,11.40
2010,03,04,14,14,11.40
2010,03,04,14,15,11.40
2010,03,04,14,16,11.40
2010,03,04,14,17,11.40
2010,03,04,14,18,11.40
2010,03,04,14,19,11.40
2010,03,04,14,20,11.40
2010,03,04,14,21,11.30
2010,03,04,14,22,11.30
2010,03,04,14,23,11.30
2010,03,04,14,24,11.30
2010,03,04,14,25,11.30
2010,03,04,14,26,11.30
2010,03,04,14,27,11.30
2010,03,04,14,28,11.40
2010,03,04,14,29,11.30
2010,03,04,14,30,11.20
2010,03,04,14,31,11.20
2010,03,04,14,32,11.30
2010,03,04,14,33,11.30
2010,03,04,14,34,11.30
2010,03,04,14,35,11.30
2010,03,04,14,36,11.30
2010,03,04,14,37,11.30
2010,03,04,14,38,11.30
2010,03,04,14,39,11.30
2010,03,04,14,40,11.30
2010,03,04,14,41,11.30
2010,03,04,14,42,11.30
2010,03,04,14,43,11.40
2010,03,04,14,44,11.40
2010,03,04,14,45,11.40
2010,03,04,14,46,11.50
2010,03,04,14,47,11.50
2010,03,04,14,48,11.40
2010,03,04,14,49,11.40
2010,03,04,14,50,11.50
2010,03,04,14,51,11.50
2010,03,04,14,52,11.40
2010,03,04,14,53,11.40
2010,03,04,14,54,11.30
2010,03,04,14,55,11.30
2010,03,04,14,56,11.20
2010,03,04,14,57,11.20
2010,03,04,14,58,11.20
2010,03,04,14,59,11.20
2010,03,04,15,00,11.30
2010,03,04,15,01,11.30
2010,03,04,15,02,11.30
2010,03,04,15,03,11.40
2010,03,04,15,04,11.40
2010,03,04,15,05,11.40
2010,03,04,15,06,11.40
2010,03,04,15,07,11.40
2010,03,04,15,08,11.40
2010,03,04,15,09,11.40
2010,03,04,15,10,11.30
2010,03,04,15,11,11.30
2010,03,04,15,12,11.20
2010,03,04,15,13,11.20
2010,03,04,15,14,11.20
2010,03,04,15,15,11.20
2010,03,04,15,16,11.20
2010,03,04,15,17,11.20
2010,03,04,15,18,11.20
2010,03,04,15,19,11.20
2010,03,04,15,20,11.20
2010,03,04,15,21,11.20
2010,03,04,15,22,11.20
2010,03,04,15,23,11.20
2010,03,04,15,24,11.20
2010,03,04,15,25,11.10
2010,03,04,15,26,11.20
2010,03,04,15,27,11.20
2010,03,04,15,28,11.20
2010,03,04,15,29,11.20
2010,03,04,15,30,11.20
2010,03,04,15,31,11.10
2010,03,04,15,32,11.00
2010,03,04,15,33,11.00
2010,03,04,15,34,10.90
2010,03,04,15,35,10.90
2010,03,04,15,36,11.00
2010,03,04,15,37,11.00
2010,03,04,15,38,11.00
2010,03,04,15,39,11.00
2010,03,04,15,40,11.00
2010,03,04,15,41,11.00
2010,03,04,15,42,10.90
2010,03,04,15,43,10.90
2010,03,04,15,44,10.80
2010,03,04,15,45,10.80
2010,03,04,15,46,10.80
2010,03,04,15,47,10.70
2010,03,04,15,48,10.70
2010,03,04,15,49,10.70
2010,03,04,15,50,10.70
2010,03,04,15,51,10.70
2010,03,04,15,52,10.70
2010,03,04,15,53,10.70
2010,03,04,15,54,10.70
2010,03,04,15,55,10.70
2010,03,04,15,56,10.70
2010,03,04,15,57,10.70
2010,03,04,15,58,10.60
2010,03,04,15,59,10.60
2010,03,04,16,00,10.60
2010,03,04,16,01,10.60
2010,03,04,16,02,10.60
2010,03,04,16,03,10.50
2010,03,04,16,04,10.50
2010,03,04,16,05,10.40
2010,03,04,16,06,10.40
2010,03,04,16,07,10.40
2010,03,04,16,08,10.40
2010,03,04,16,09,10.40
2010,03,04,16,10,10.30
2010,03,04,16,11,10.30
2010,03,04,16,12,10.30
2010,03,04,16,13,10.30
2010,03,04,16,14,10.30
2010,03,04,16,15,10.30
2010,03,04,16,16,10.20
2010,03,04,16,17,10.20
2010,03,04,16,18,10.20
2010,03,04,16,19,10.20
2010,03,04,16,20,10.20
2010,03,04,16,21,10.10
2010,03,04,16,22,10.10
2010,03,04,16,23,10.10
2010,03,04,16,24,10.10
2010,03,04,16,25,10.10
2010,03,04,16,26,10.10
2010,03,04,16,27,10.10
2010,03,04,16,28,10.10
2010,03,04,16,29,10.10
2010,03,04,16,30,10.10
2010,03,04,16,31,10.10
2010,03,04,16,32,10.10
2010,03,04,16,33,10.10
2010,03,04,16,34,10.10
2010,03,04,16,35,10.10
2010,03,04,16,36,10.10
2010,03,04,16,37,10.10
2010,03,04,16,38,10.10
2010,03,04,16,39,10.10
2010,03,04,16,40,10.00
2010,03,04,16,41,10.00
2010,03,04,16,42,10.00
2010,03,04,16,43,10.00
2010,03,04,16,44,9.90
2010,03,04,16,45,9.90
2010,03,04,16,46,9.90
2010,03,04,16,47,9.90
2010,03,04,16,48,9.90
2010,03,04,16,49,9.80
2010,03,04,16,50,9.80
2010,03,04,16,51,9.80
2010,03,04,16,52,9.80
2010,03,04,16,53,9.80
2010,03,04,16,54,9.80
2010,03,04,16,55,9.70
2010,03,04,16,56,9.70
2010,03,04,16,57,9.70
2010,03,04,16,58,9.70
2010,03,04,16,59,9.60
2010,03,04,17,00,9.60
2010,03,04,17,01,9.60
2010,03,04,17,02,9.60
2010,03,04,17,03,9.60
2010,03,04,17,04,9.60
2010,03,04,17,05,9.60
2010,03,04,17,06,9.60
2010,03,04,17,07,9.60
2010,03,04,17,08,9.60
2010,03,04,17,09,9.50
2010,03,04,17,10,9.50
2010,03,04,17,11,9.50
2010,03,04,17,12,9.50
2010,03,04,17,13,9.40
2010,03,04,17,14,9.40
2010,03,04,17,15,9.40
2010,03,04,17,16,9.40
2010,03,04,17,17,9.40
2010,03,04,17,18,9.40
2010,03,04,17,19,9.40
2010,03,04,17,20,9.30
2010,03,04,17,21,9.30
2010,03,04,17,22,9.30
2010,03,04,17,23,9.30
2010,03,04,17,24,9.30
2010,03,04,17,25,9.30
2010,03,04,17,26,9.30
2010,03,04,17,27,9.30
2010,03,04,17,28,9.30
2010,03,04,17,29,9.30
2010,03,04,17,30,9.30
2010,03,04,17,31,9.20
2010,03,04,17,32,9.20
2010,03,04,17,33,9.20
2010,03,04,17,34,9.20
2010,03,04,17,35,9.10
2010,03,04,17,36,9.10
2010,03,04,17,37,9.10
2010,03,04,17,38,9.10
2010,03,04,17,39,9.10
2010,03,04,17,40,9.10
2010,03,04,17,41,9.10
2010,03,04,17,42,9.10
2010,03,04,17,43,9.00
2010,03,04,17,44,9.00
2010,03,04,17,45,9.00
2010,03,04,17,46,9.00